Location: �perlecques
(50.8057°N, 2.1521°E)
Time: 15:40:47
(UTC+00:00)

BUGSAT 1 - Visible Passes

Search period start: 20 March 2023 00:00
Search period end: 30 March 2023 00:00
Orbit: 550 x 592 km, 98.1° (Epoch: 20 March)

Date Brightness Start Highest point End Pass type
(mag) Time Alt. Az. Time Alt. Az. Time Alt. Az.
20 Mar ? 19:03:14 10° WSW 19:05:21 14° W 19:07:28 10° WNW visible
21 Mar ? 19:05:37 10° WSW 19:07:34 13° W 19:09:30 10° WNW visible
22 Mar ? 19:07:59 10° WSW 19:09:46 12° W 19:11:32 10° WNW visible
23 Mar ? 19:10:23 10° WSW 19:11:57 12° W 19:13:30 10° WNW visible
24 Mar ? 19:12:48 10° WSW 19:14:07 11° W 19:15:26 10° WNW visible
25 Mar ? 19:15:16 10° W 19:16:17 11° W 19:17:17 10° WNW visible
26 Mar ? 19:17:53 10° W 19:18:25 10° W 19:18:58 10° WNW visible
